owner,sensor,date,latitude,longitude,vertical_datum,mass_concentration_of_oxygen_in_sea_water,qcFlag 
DISL,ioos:station:DISL:CATA:1,2016-06-01T00:00:00Z,30.3085,-88.1395,2.294,7.1,1111122 
DISL,ioos:station:DISL:CATA:1,2016-06-01T00:30:00Z,30.3085,-88.1395,2.291,7.03,1111122 
DISL,ioos:station:DISL:CATA:1,2016-06-01T01:00:00Z,30.3085,-88.1395,2.299,7.02,1111122 
DISL,ioos:station:DISL:CATA:1,2016-06-01T01:30:00Z,30.3085,-88.1395,2.297,7.0,1111122 
DISL,ioos:station:DISL:CATA:1,2016-06-01T02:00:00Z,30.3085,-88.1395,2.316,6.89,1111122 
DISL,ioos:station:DISL:CATA:1,2016-06-01T02:30:00Z,30.3085,-88.1395,2.313,6.77,1111122 
DISL,ioos:station:DISL:CATA:1,2016-06-01T03:00:00Z,30.3085,-88.1395,2.314,6.7,1111122 
DISL,ioos:station:DISL:CATA:1,2016-06-01T03:30:00Z,30.3085,-88.1395,2.326,6.61,1111122 
DISL,ioos:station:DISL:CATA:1,2016-06-01T04:00:00Z,30.3085,-88.1395,2.319,6.55,1111122 
DISL,ioos:station:DISL:CATA:1,2016-06-01T04:30:00Z,30.3085,-88.1395,2.323,6.44,1111122 
DISL,ioos:station:DISL:CATA:1,2016-06-01T05:00:00Z,30.3085,-88.1395,2.314,6.43,1111122 
DISL,ioos:station:DISL:CATA:1,2016-06-01T05:30:00Z,30.3085,-88.1395,2.312,6.42,1111122 
DISL,ioos:station:DISL:CATA:1,2016-06-01T06:00:00Z,30.3085,-88.1395,2.299,6.37,1111122 
DISL,ioos:station:DISL:CATA:1,2016-06-01T06:30:00Z,30.3085,-88.1395,2.298,6.36,1111122 
DISL,ioos:station:DISL:CATA:1,2016-06-01T07:00:00Z,30.3085,-88.1395,2.311,6.38,1111122 
DISL,ioos:station:DISL:CATA:1,2016-06-01T07:30:00Z,30.3085,-88.1395,2.326,6.3,1111122 
DISL,ioos:station:DISL:CATA:1,2016-06-01T08:00:00Z,30.3085,-88.1395,2.349,6.31,1111122 
DISL,ioos:station:DISL:CATA:1,2016-06-01T08:30:00Z,30.3085,-88.1395,2.36,6.25,1111122 
DISL,ioos:station:DISL:CATA:1,2016-06-01T09:00:00Z,30.3085,-88.1395,2.371,6.32,1111122 
DISL,ioos:station:DISL:CATA:1,2016-06-01T09:30:00Z,30.3085,-88.1395,2.405,6.37,1111122 
DISL,ioos:station:DISL:CATA:1,2016-06-01T10:00:00Z,30.3085,-88.1395,2.403,6.39,1111122 
DISL,ioos:station:DISL:CATA:1,2016-06-01T10:30:00Z,30.3085,-88.1395,2.424,6.43,1111122 
DISL,ioos:station:DISL:CATA:1,2016-06-01T11:00:00Z,30.3085,-88.1395,2.428,6.57,1111122 
DISL,ioos:station:DISL:CATA:1,2016-06-01T11:30:00Z,30.3085,-88.1395,2.43,6.57,1111122 
DISL,ioos:station:DISL:CATA:1,2016-06-01T12:00:00Z,30.3085,-88.1395,2.447,6.59,1111122 
DISL,ioos:station:DISL:CATA:1,2016-06-01T12:30:00Z,30.3085,-88.1395,2.444,6.59,1111122 
DISL,ioos:station:DISL:CATA:1,2016-06-01T13:00:00Z,30.3085,-88.1395,2.453,6.54,1111122 
DISL,ioos:station:DISL:CATA:1,2016-06-01T13:30:00Z,30.3085,-88.1395,2.464,6.35,1111122 
DISL,ioos:station:DISL:CATA:1,2016-06-01T14:00:00Z,30.3085,-88.1395,2.472,6.26,1111122 
DISL,ioos:station:DISL:CATA:1,2016-06-01T14:30:00Z,30.3085,-88.1395,2.474,6.29,1111122 
DISL,ioos:station:DISL:CATA:1,2016-06-01T15:00:00Z,30.3085,-88.1395,2.464,6.24,1111122 
DISL,ioos:station:DISL:CATA:1,2016-06-01T15:30:00Z,30.3085,-88.1395,2.462,6.24,1111122 
DISL,ioos:station:DISL:CATA:1,2016-06-01T16:00:00Z,30.3085,-88.1395,2.434,6.12,1111122 
DISL,ioos:station:DISL:CATA:1,2016-06-01T16:30:00Z,30.3085,-88.1395,2.412,6.24,1111122 
DISL,ioos:station:DISL:CATA:1,2016-06-01T17:00:00Z,30.3085,-88.1395,2.397,5.45,1111122 
DISL,ioos:station:DISL:CATA:1,2016-06-01T17:30:00Z,30.3085,-88.1395,2.365,5.52,1111122 
DISL,ioos:station:DISL:CATA:1,2016-06-01T18:00:00Z,30.3085,-88.1395,2.321,5.66,1111122 
DISL,ioos:station:DISL:CATA:1,2016-06-01T18:30:00Z,30.3085,-88.1395,2.286,5.69,1111122 
DISL,ioos:station:DISL:CATA:1,2016-06-01T19:00:00Z,30.3085,-88.1395,2.246,6.51,1111122 
DISL,ioos:station:DISL:CATA:1,2016-06-01T19:30:00Z,30.3085,-88.1395,2.222,6.94,1111122 
DISL,ioos:station:DISL:CATA:1,2016-06-01T20:00:00Z,30.3085,-88.1395,2.205,7.37,1111122 
DISL,ioos:station:DISL:CATA:1,2016-06-01T20:30:00Z,30.3085,-88.1395,2.177,7.42,1111122 
DISL,ioos:station:DISL:CATA:1,2016-06-01T21:00:00Z,30.3085,-88.1395,2.177,7.5,1111122 
DISL,ioos:station:DISL:CATA:1,2016-06-01T21:30:00Z,30.3085,-88.1395,2.179,7.49,1111122 
DISL,ioos:station:DISL:CATA:1,2016-06-01T22:00:00Z,30.3085,-88.1395,2.175,7.47,1111122 
DISL,ioos:station:DISL:CATA:1,2016-06-01T22:30:00Z,30.3085,-88.1395,2.175,7.48,1111122 
DISL,ioos:station:DISL:CATA:1,2016-06-01T23:00:00Z,30.3085,-88.1395,2.183,7.38,1111122 
DISL,ioos:station:DISL:CATA:1,2016-06-01T23:30:00Z,30.3085,-88.1395,2.168,6.81,1111122 
DISL,ioos:station:DISL:CATA:1,2016-06-02T00:00:00Z,30.3085,-88.1395,2.168,6.83,1111122 
DISL,ioos:station:DISL:CATA:1,2016-06-02T00:30:00Z,30.3085,-88.1395,2.174,7.36,1111122 
DISL,ioos:station:DISL:CATA:1,2016-06-02T01:00:00Z,30.3085,-88.1395,2.187,7.31,1111122 
DISL,ioos:station:DISL:CATA:1,2016-06-02T01:30:00Z,30.3085,-88.1395,2.194,7.23,1111122 
DISL,ioos:station:DISL:CATA:1,2016-06-02T02:00:00Z,30.3085,-88.1395,2.215,7.09,1111122 
DISL,ioos:station:DISL:CATA:1,2016-06-02T02:30:00Z,30.3085,-88.1395,2.236,6.99,1111122 
DISL,ioos:station:DISL:CATA:1,2016-06-02T03:00:00Z,30.3085,-88.1395,2.259,7.04,1111122 
DISL,ioos:station:DISL:CATA:1,2016-06-02T03:30:00Z,30.3085,-88.1395,2.275,7.06,1111122 
DISL,ioos:station:DISL:CATA:1,2016-06-02T04:00:00Z,30.3085,-88.1395,2.285,6.98,1111122 
DISL,ioos:station:DISL:CATA:1,2016-06-02T04:30:00Z,30.3085,-88.1395,2.305,6.92,1111122 
DISL,ioos:station:DISL:CATA:1,2016-06-02T05:00:00Z,30.3085,-88.1395,2.317,6.68,1111122 
DISL,ioos:station:DISL:CATA:1,2016-06-02T05:30:00Z,30.3085,-88.1395,2.314,6.52,1111122 
DISL,ioos:station:DISL:CATA:1,2016-06-02T06:00:00Z,30.3085,-88.1395,2.303,6.62,1111122 
DISL,ioos:station:DISL:CATA:1,2016-06-02T06:30:00Z,30.3085,-88.1395,2.321,6.45,1111122 
DISL,ioos:station:DISL:CATA:1,2016-06-02T07:00:00Z,30.3085,-88.1395,2.329,6.19,1111122 
DISL,ioos:station:DISL:CATA:1,2016-06-02T07:30:00Z,30.3085,-88.1395,2.338,6.13,1111122 
DISL,ioos:station:DISL:CATA:1,2016-06-02T08:00:00Z,30.3085,-88.1395,2.355,6.14,1111122 
DISL,ioos:station:DISL:CATA:1,2016-06-02T08:30:00Z,30.3085,-88.1395,2.372,6.14,1111122 
DISL,ioos:station:DISL:CATA:1,2016-06-02T09:00:00Z,30.3085,-88.1395,2.39,6.15,1111122 
DISL,ioos:station:DISL:CATA:1,2016-06-02T09:30:00Z,30.3085,-88.1395,2.406,6.14,1111122 
DISL,ioos:station:DISL:CATA:1,2016-06-02T10:00:00Z,30.3085,-88.1395,2.435,6.35,1111122 
DISL,ioos:station:DISL:CATA:1,2016-06-02T10:30:00Z,30.3085,-88.1395,2.456,6.42,1111122 
DISL,ioos:station:DISL:CATA:1,2016-06-02T11:00:00Z,30.3085,-88.1395,2.478,6.42,1111122 
DISL,ioos:station:DISL:CATA:1,2016-06-02T11:30:00Z,30.3085,-88.1395,2.489,6.43,1111122 
DISL,ioos:station:DISL:CATA:1,2016-06-02T12:00:00Z,30.3085,-88.1395,2.496,6.55,1111122 
DISL,ioos:station:DISL:CATA:1,2016-06-02T12:30:00Z,30.3085,-88.1395,2.509,6.59,1111122 
DISL,ioos:station:DISL:CATA:1,2016-06-02T13:00:00Z,30.3085,-88.1395,2.516,6.66,1111122 
DISL,ioos:station:DISL:CATA:1,2016-06-02T13:30:00Z,30.3085,-88.1395,2.515,6.71,1111122 
DISL,ioos:station:DISL:CATA:1,2016-06-02T14:00:00Z,30.3085,-88.1395,2.513,6.72,1111122 
DISL,ioos:station:DISL:CATA:1,2016-06-02T14:30:00Z,30.3085,-88.1395,2.514,6.74,1111122 
DISL,ioos:station:DISL:CATA:1,2016-06-02T15:00:00Z,30.3085,-88.1395,2.509,6.32,1111122 
DISL,ioos:station:DISL:CATA:1,2016-06-02T15:30:00Z,30.3085,-88.1395,2.507,6.22,1111122 
DISL,ioos:station:DISL:CATA:1,2016-06-02T16:00:00Z,30.3085,-88.1395,2.493,5.91,1111122 
DISL,ioos:station:DISL:CATA:1,2016-06-02T16:30:00Z,30.3085,-88.1395,2.463,5.45,1111122 
DISL,ioos:station:DISL:CATA:1,2016-06-02T17:00:00Z,30.3085,-88.1395,2.443,4.43,1111122 
DISL,ioos:station:DISL:CATA:1,2016-06-02T17:30:00Z,30.3085,-88.1395,2.404,5.76,1111122 
DISL,ioos:station:DISL:CATA:1,2016-06-02T18:00:00Z,30.3085,-88.1395,2.364,6.4,1111122 
DISL,ioos:station:DISL:CATA:1,2016-06-02T18:30:00Z,30.3085,-88.1395,2.326,6.04,1111122 
DISL,ioos:station:DISL:CATA:1,2016-06-02T19:00:00Z,30.3085,-88.1395,2.284,6.15,1111122 
DISL,ioos:station:DISL:CATA:1,2016-06-02T19:30:00Z,30.3085,-88.1395,2.24,6.56,1111122 
DISL,ioos:station:DISL:CATA:1,2016-06-02T20:00:00Z,30.3085,-88.1395,2.192,6.95,1111122 
DISL,ioos:station:DISL:CATA:1,2016-06-02T20:30:00Z,30.3085,-88.1395,2.163,7.17,1111122 
DISL,ioos:station:DISL:CATA:1,2016-06-02T21:00:00Z,30.3085,-88.1395,2.145,7.41,1111122 
DISL,ioos:station:DISL:CATA:1,2016-06-02T21:30:00Z,30.3085,-88.1395,2.131,7.56,1111122 
DISL,ioos:station:DISL:CATA:1,2016-06-02T22:00:00Z,30.3085,-88.1395,2.124,7.52,1111122 
DISL,ioos:station:DISL:CATA:1,2016-06-02T22:30:00Z,30.3085,-88.1395,2.121,7.47,1111122 
DISL,ioos:station:DISL:CATA:1,2016-06-02T23:00:00Z,30.3085,-88.1395,2.145,7.49,1111122 
DISL,ioos:station:DISL:CATA:1,2016-06-02T23:30:00Z,30.3085,-88.1395,2.166,7.28,1111122 
DISL,ioos:station:DISL:CATA:1,2016-06-03T00:00:00Z,30.3085,-88.1395,2.175,7.21,1111122 
DISL,ioos:station:DISL:CATA:1,2016-06-03T00:30:00Z,30.3085,-88.1395,2.184,6.83,1111122 
DISL,ioos:station:DISL:CATA:1,2016-06-03T01:00:00Z,30.3085,-88.1395,2.171,6.99,1111122 
DISL,ioos:station:DISL:CATA:1,2016-06-03T01:30:00Z,30.3085,-88.1395,2.184,6.97,1111122 
DISL,ioos:station:DISL:CATA:1,2016-06-03T02:00:00Z,30.3085,-88.1395,2.17,6.98,1111122 
DISL,ioos:station:DISL:CATA:1,2016-06-03T02:30:00Z,30.3085,-88.1395,2.186,6.83,1111122 
DISL,ioos:station:DISL:CATA:1,2016-06-03T03:00:00Z,30.3085,-88.1395,2.203,6.72,1111122 
DISL,ioos:station:DISL:CATA:1,2016-06-03T03:30:00Z,30.3085,-88.1395,2.225,6.61,1111122 
DISL,ioos:station:DISL:CATA:1,2016-06-03T04:00:00Z,30.3085,-88.1395,2.259,6.57,1111122 
DISL,ioos:station:DISL:CATA:1,2016-06-03T04:30:00Z,30.3085,-88.1395,2.279,6.57,1111122 
DISL,ioos:station:DISL:CATA:1,2016-06-03T05:00:00Z,30.3085,-88.1395,2.302,6.59,1111122 
DISL,ioos:station:DISL:CATA:1,2016-06-03T05:30:00Z,30.3085,-88.1395,2.322,6.59,1111122 
DISL,ioos:station:DISL:CATA:1,2016-06-03T06:00:00Z,30.3085,-88.1395,2.345,6.54,1111122 
DISL,ioos:station:DISL:CATA:1,2016-06-03T06:30:00Z,30.3085,-88.1395,2.357,6.38,1111122 
DISL,ioos:station:DISL:CATA:1,2016-06-03T07:00:00Z,30.3085,-88.1395,2.369,6.36,1111122 
DISL,ioos:station:DISL:CATA:1,2016-06-03T07:30:00Z,30.3085,-88.1395,2.387,6.36,1111122 
DISL,ioos:station:DISL:CATA:1,2016-06-03T08:00:00Z,30.3085,-88.1395,2.41,6.33,1111122 
DISL,ioos:station:DISL:CATA:1,2016-06-03T08:30:00Z,30.3085,-88.1395,2.433,6.27,1111122 
DISL,ioos:station:DISL:CATA:1,2016-06-03T09:00:00Z,30.3085,-88.1395,2.455,6.23,1111122 
DISL,ioos:station:DISL:CATA:1,2016-06-03T09:30:00Z,30.3085,-88.1395,2.477,6.15,1111122 
DISL,ioos:station:DISL:CATA:1,2016-06-03T10:00:00Z,30.3085,-88.1395,2.508,6.16,1111122 
DISL,ioos:station:DISL:CATA:1,2016-06-03T10:30:00Z,30.3085,-88.1395,2.531,6.14,1111122 
DISL,ioos:station:DISL:CATA:1,2016-06-03T11:00:00Z,30.3085,-88.1395,2.56,6.09,1111122 
DISL,ioos:station:DISL:CATA:1,2016-06-03T11:30:00Z,30.3085,-88.1395,2.584,6.12,1111122 
DISL,ioos:station:DISL:CATA:1,2016-06-03T12:00:00Z,30.3085,-88.1395,2.597,6.1,1111122 
DISL,ioos:station:DISL:CATA:1,2016-06-03T12:30:00Z,30.3085,-88.1395,2.617,6.05,1111122 
DISL,ioos:station:DISL:CATA:1,2016-06-03T13:00:00Z,30.3085,-88.1395,2.613,5.99,1111122 
DISL,ioos:station:DISL:CATA:1,2016-06-03T13:30:00Z,30.3085,-88.1395,2.614,6.0,1111122 
DISL,ioos:station:DISL:CATA:1,2016-06-03T14:00:00Z,30.3085,-88.1395,2.622,6.24,1111122 
DISL,ioos:station:DISL:CATA:1,2016-06-03T14:30:00Z,30.3085,-88.1395,2.622,6.24,1111122 
DISL,ioos:station:DISL:CATA:1,2016-06-03T15:00:00Z,30.3085,-88.1395,2.528,6.12,1111122 
DISL,ioos:station:DISL:CATA:1,2016-06-03T15:30:00Z,30.3085,-88.1395,2.524,5.95,1111122 
DISL,ioos:station:DISL:CATA:1,2016-06-03T16:00:00Z,30.3085,-88.1395,2.506,6.15,1111122 
DISL,ioos:station:DISL:CATA:1,2016-06-03T16:30:00Z,30.3085,-88.1395,2.49,5.72,1111122 
DISL,ioos:station:DISL:CATA:1,2016-06-03T17:00:00Z,30.3085,-88.1395,2.468,5.59,1111122 
DISL,ioos:station:DISL:CATA:1,2016-06-03T17:30:00Z,30.3085,-88.1395,2.44,5.72,1111122 
DISL,ioos:station:DISL:CATA:1,2016-06-03T18:00:00Z,30.3085,-88.1395,2.396,5.98,1111122 
DISL,ioos:station:DISL:CATA:1,2016-06-03T18:30:00Z,30.3085,-88.1395,2.353,6.17,1111122 
DISL,ioos:station:DISL:CATA:1,2016-06-03T19:00:00Z,30.3085,-88.1395,2.312,6.23,1111122 
DISL,ioos:station:DISL:CATA:1,2016-06-03T19:30:00Z,30.3085,-88.1395,2.265,6.7,1111122 
DISL,ioos:station:DISL:CATA:1,2016-06-03T20:00:00Z,30.3085,-88.1395,2.226,6.46,1111122 
DISL,ioos:station:DISL:CATA:1,2016-06-03T20:30:00Z,30.3085,-88.1395,2.181,6.71,1111122 
DISL,ioos:station:DISL:CATA:1,2016-06-03T21:00:00Z,30.3085,-88.1395,2.144,6.96,1111122 
DISL,ioos:station:DISL:CATA:1,2016-06-03T21:30:00Z,30.3085,-88.1395,2.109,6.88,1111122 
DISL,ioos:station:DISL:CATA:1,2016-06-03T22:00:00Z,30.3085,-88.1395,2.077,6.99,1111122 
DISL,ioos:station:DISL:CATA:1,2016-06-03T22:30:00Z,30.3085,-88.1395,2.056,6.98,1111122 
DISL,ioos:station:DISL:CATA:1,2016-06-03T23:00:00Z,30.3085,-88.1395,2.04,6.88,1111122 
DISL,ioos:station:DISL:CATA:1,2016-06-03T23:30:00Z,30.3085,-88.1395,2.024,6.84,1111122 
DISL,ioos:station:DISL:CATA:1,2016-06-04T00:00:00Z,30.3085,-88.1395,2.033,6.77,1111122 
DISL,ioos:station:DISL:CATA:1,2016-06-04T00:30:00Z,30.3085,-88.1395,2.043,6.54,1111122 
DISL,ioos:station:DISL:CATA:1,2016-06-04T01:00:00Z,30.3085,-88.1395,2.044,6.44,1111122 
DISL,ioos:station:DISL:CATA:1,2016-06-04T01:30:00Z,30.3085,-88.1395,2.05,6.28,1111122 
DISL,ioos:station:DISL:CATA:1,2016-06-04T02:00:00Z,30.3085,-88.1395,2.053,6.29,1111122 
DISL,ioos:station:DISL:CATA:1,2016-06-04T02:30:00Z,30.3085,-88.1395,2.072,6.37,1111122 
DISL,ioos:station:DISL:CATA:1,2016-06-04T03:00:00Z,30.3085,-88.1395,2.088,6.41,1111122 
DISL,ioos:station:DISL:CATA:1,2016-06-04T03:30:00Z,30.3085,-88.1395,2.138,6.14,1111122 
DISL,ioos:station:DISL:CATA:1,2016-06-04T04:00:00Z,30.3085,-88.1395,2.164,5.78,1111122 
DISL,ioos:station:DISL:CATA:1,2016-06-04T04:30:00Z,30.3085,-88.1395,2.186,6.08,1111122 
DISL,ioos:station:DISL:CATA:1,2016-06-04T05:00:00Z,30.3085,-88.1395,2.213,6.16,1111122 
DISL,ioos:station:DISL:CATA:1,2016-06-04T05:30:00Z,30.3085,-88.1395,2.274,6.08,1111122 
DISL,ioos:station:DISL:CATA:1,2016-06-04T06:00:00Z,30.3085,-88.1395,2.289,5.92,1111122 
DISL,ioos:station:DISL:CATA:1,2016-06-04T06:30:00Z,30.3085,-88.1395,2.3,6.0,1111122 
DISL,ioos:station:DISL:CATA:1,2016-06-04T07:00:00Z,30.3085,-88.1395,2.259,6.05,1111122 
DISL,ioos:station:DISL:CATA:1,2016-06-04T07:30:00Z,30.3085,-88.1395,2.229,5.94,1111122 
DISL,ioos:station:DISL:CATA:1,2016-06-04T08:00:00Z,30.3085,-88.1395,2.28,6.04,1111122 
DISL,ioos:station:DISL:CATA:1,2016-06-04T08:30:00Z,30.3085,-88.1395,2.336,5.9,1111122 
DISL,ioos:station:DISL:CATA:1,2016-06-04T09:00:00Z,30.3085,-88.1395,2.358,5.86,1111122 
DISL,ioos:station:DISL:CATA:1,2016-06-04T09:30:00Z,30.3085,-88.1395,2.376,5.73,1111122 
DISL,ioos:station:DISL:CATA:1,2016-06-04T10:00:00Z,30.3085,-88.1395,2.418,5.44,1111122 
DISL,ioos:station:DISL:CATA:1,2016-06-04T10:30:00Z,30.3085,-88.1395,2.46,5.43,1111122 
DISL,ioos:station:DISL:CATA:1,2016-06-04T11:00:00Z,30.3085,-88.1395,2.496,5.68,1111122 
DISL,ioos:station:DISL:CATA:1,2016-06-04T11:30:00Z,30.3085,-88.1395,2.514,5.7,1111122 
DISL,ioos:station:DISL:CATA:1,2016-06-04T12:00:00Z,30.3085,-88.1395,2.544,5.79,1111122 
DISL,ioos:station:DISL:CATA:1,2016-06-04T12:30:00Z,30.3085,-88.1395,2.557,5.97,1111122 
DISL,ioos:station:DISL:CATA:1,2016-06-04T13:00:00Z,30.3085,-88.1395,2.575,5.92,1111122 
DISL,ioos:station:DISL:CATA:1,2016-06-04T13:30:00Z,30.3085,-88.1395,2.592,5.97,1111122 
DISL,ioos:station:DISL:CATA:1,2016-06-04T14:00:00Z,30.3085,-88.1395,2.61,6.09,1111122 
DISL,ioos:station:DISL:CATA:1,2016-06-04T14:30:00Z,30.3085,-88.1395,2.611,6.17,1111122 
DISL,ioos:station:DISL:CATA:1,2016-06-04T15:00:00Z,30.3085,-88.1395,2.609,6.2,1111122 
DISL,ioos:station:DISL:CATA:1,2016-06-04T15:30:00Z,30.3085,-88.1395,2.584,6.26,1111122 
DISL,ioos:station:DISL:CATA:1,2016-06-04T16:00:00Z,30.3085,-88.1395,2.594,6.36,1111122 
DISL,ioos:station:DISL:CATA:1,2016-06-04T16:30:00Z,30.3085,-88.1395,2.558,6.16,1111122 
DISL,ioos:station:DISL:CATA:1,2016-06-04T17:00:00Z,30.3085,-88.1395,2.56,6.16,1111122 
DISL,ioos:station:DISL:CATA:1,2016-06-04T17:30:00Z,30.3085,-88.1395,2.553,6.07,1111122 
DISL,ioos:station:DISL:CATA:1,2016-06-04T18:00:00Z,30.3085,-88.1395,2.536,5.95,1111122 
DISL,ioos:station:DISL:CATA:1,2016-06-04T18:30:00Z,30.3085,-88.1395,2.512,5.86,1111122 
DISL,ioos:station:DISL:CATA:1,2016-06-04T19:00:00Z,30.3085,-88.1395,2.462,5.78,1111122 
DISL,ioos:station:DISL:CATA:1,2016-06-04T19:30:00Z,30.3085,-88.1395,2.338,6.19,1111122 
DISL,ioos:station:DISL:CATA:1,2016-06-04T20:00:00Z,30.3085,-88.1395,2.389,7.06,1111122 
DISL,ioos:station:DISL:CATA:1,2016-06-04T20:30:00Z,30.3085,-88.1395,2.319,6.82,1111122 
DISL,ioos:station:DISL:CATA:1,2016-06-04T21:00:00Z,30.3085,-88.1395,2.279,6.74,1111122 
DISL,ioos:station:DISL:CATA:1,2016-06-04T21:30:00Z,30.3085,-88.1395,2.258,6.71,1111122 
DISL,ioos:station:DISL:CATA:1,2016-06-04T22:00:00Z,30.3085,-88.1395,2.229,6.69,1111122 
DISL,ioos:station:DISL:CATA:1,2016-06-04T22:30:00Z,30.3085,-88.1395,2.176,6.53,1111122 
DISL,ioos:station:DISL:CATA:1,2016-06-04T23:00:00Z,30.3085,-88.1395,2.145,6.55,1111122 
DISL,ioos:station:DISL:CATA:1,2016-06-04T23:30:00Z,30.3085,-88.1395,2.127,6.51,1111122 
DISL,ioos:station:DISL:CATA:1,2016-06-05T00:00:00Z,30.3085,-88.1395,2.147,6.44,1111122 
DISL,ioos:station:DISL:CATA:1,2016-06-05T00:30:00Z,30.3085,-88.1395,2.134,6.41,1111122 
DISL,ioos:station:DISL:CATA:1,2016-06-05T01:00:00Z,30.3085,-88.1395,2.114,6.4,1111122 
DISL,ioos:station:DISL:CATA:1,2016-06-05T01:30:00Z,30.3085,-88.1395,2.111,6.36,1111122 
DISL,ioos:station:DISL:CATA:1,2016-06-05T02:00:00Z,30.3085,-88.1395,2.087,6.31,1111122 
DISL,ioos:station:DISL:CATA:1,2016-06-05T02:30:00Z,30.3085,-88.1395,2.098,6.31,1111122 
DISL,ioos:station:DISL:CATA:1,2016-06-05T03:00:00Z,30.3085,-88.1395,2.088,6.28,1111122 
DISL,ioos:station:DISL:CATA:1,2016-06-05T03:30:00Z,30.3085,-88.1395,2.069,6.2,1111122 
DISL,ioos:station:DISL:CATA:1,2016-06-05T04:00:00Z,30.3085,-88.1395,2.077,6.18,1111122 
DISL,ioos:station:DISL:CATA:1,2016-06-05T04:30:00Z,30.3085,-88.1395,2.105,6.16,1111122 
DISL,ioos:station:DISL:CATA:1,2016-06-05T05:00:00Z,30.3085,-88.1395,2.171,6.12,1111122 
DISL,ioos:station:DISL:CATA:1,2016-06-05T05:30:00Z,30.3085,-88.1395,2.217,6.19,1111122 
DISL,ioos:station:DISL:CATA:1,2016-06-05T06:00:00Z,30.3085,-88.1395,2.212,6.16,1111122 
DISL,ioos:station:DISL:CATA:1,2016-06-05T06:30:00Z,30.3085,-88.1395,2.274,6.34,1111122 
DISL,ioos:station:DISL:CATA:1,2016-06-05T07:00:00Z,30.3085,-88.1395,2.338,6.36,1111122 
DISL,ioos:station:DISL:CATA:1,2016-06-05T07:30:00Z,30.3085,-88.1395,2.287,6.32,1111122 
DISL,ioos:station:DISL:CATA:1,2016-06-05T08:00:00Z,30.3085,-88.1395,2.264,6.28,1111122 
DISL,ioos:station:DISL:CATA:1,2016-06-05T08:30:00Z,30.3085,-88.1395,2.313,5.85,1111122 
DISL,ioos:station:DISL:CATA:1,2016-06-05T09:00:00Z,30.3085,-88.1395,2.3,5.99,1111122 
DISL,ioos:station:DISL:CATA:1,2016-06-05T09:30:00Z,30.3085,-88.1395,2.328,5.64,1111122 
DISL,ioos:station:DISL:CATA:1,2016-06-05T10:00:00Z,30.3085,-88.1395,2.341,5.51,1111122 
DISL,ioos:station:DISL:CATA:1,2016-06-05T10:30:00Z,30.3085,-88.1395,2.374,6.02,1111122 
DISL,ioos:station:DISL:CATA:1,2016-06-05T11:00:00Z,30.3085,-88.1395,2.401,5.94,1111122 
DISL,ioos:station:DISL:CATA:1,2016-06-05T11:30:00Z,30.3085,-88.1395,2.443,5.47,1111122 
DISL,ioos:station:DISL:CATA:1,2016-06-05T12:00:00Z,30.3085,-88.1395,2.477,5.89,1111122 
DISL,ioos:station:DISL:CATA:1,2016-06-05T12:30:00Z,30.3085,-88.1395,2.494,5.99,1111122 
DISL,ioos:station:DISL:CATA:1,2016-06-05T13:00:00Z,30.3085,-88.1395,2.553,6.0,1111122 
DISL,ioos:station:DISL:CATA:1,2016-06-05T13:30:00Z,30.3085,-88.1395,2.575,6.21,1111122 
DISL,ioos:station:DISL:CATA:1,2016-06-05T14:00:00Z,30.3085,-88.1395,2.61,6.27,1111122 
DISL,ioos:station:DISL:CATA:1,2016-06-05T14:30:00Z,30.3085,-88.1395,2.619,6.36,1111122 
DISL,ioos:station:DISL:CATA:1,2016-06-05T15:00:00Z,30.3085,-88.1395,2.63,6.45,1111122 
DISL,ioos:station:DISL:CATA:1,2016-06-05T15:30:00Z,30.3085,-88.1395,2.649,6.55,1111122 
DISL,ioos:station:DISL:CATA:1,2016-06-05T16:00:00Z,30.3085,-88.1395,2.667,6.68,1111122 
DISL,ioos:station:DISL:CATA:1,2016-06-05T16:30:00Z,30.3085,-88.1395,2.646,6.76,1111122 
DISL,ioos:station:DISL:CATA:1,2016-06-05T17:00:00Z,30.3085,-88.1395,2.62,6.86,1111122 
DISL,ioos:station:DISL:CATA:1,2016-06-05T17:30:00Z,30.3085,-88.1395,2.604,6.69,1111122 
DISL,ioos:station:DISL:CATA:1,2016-06-05T18:00:00Z,30.3085,-88.1395,2.555,6.14,1111122 
DISL,ioos:station:DISL:CATA:1,2016-06-05T18:30:00Z,30.3085,-88.1395,2.555,6.4,1111122 
DISL,ioos:station:DISL:CATA:1,2016-06-05T19:00:00Z,30.3085,-88.1395,2.509,6.58,1111122 
DISL,ioos:station:DISL:CATA:1,2016-06-05T19:30:00Z,30.3085,-88.1395,2.478,7.17,1111122 
DISL,ioos:station:DISL:CATA:1,2016-06-05T20:00:00Z,30.3085,-88.1395,2.438,7.11,1111122 
DISL,ioos:station:DISL:CATA:1,2016-06-05T20:30:00Z,30.3085,-88.1395,2.42,6.81,1111122 
DISL,ioos:station:DISL:CATA:1,2016-06-05T21:00:00Z,30.3085,-88.1395,2.374,6.91,1111122 
DISL,ioos:station:DISL:CATA:1,2016-06-05T21:30:00Z,30.3085,-88.1395,2.332,6.95,1111122 
DISL,ioos:station:DISL:CATA:1,2016-06-05T22:00:00Z,30.3085,-88.1395,2.276,7.24,1111122 
DISL,ioos:station:DISL:CATA:1,2016-06-05T22:30:00Z,30.3085,-88.1395,2.233,7.15,1111122 
DISL,ioos:station:DISL:CATA:1,2016-06-05T23:00:00Z,30.3085,-88.1395,2.192,7.08,1111122 
DISL,ioos:station:DISL:CATA:1,2016-06-05T23:30:00Z,30.3085,-88.1395,2.155,6.99,1111122 
DISL,ioos:station:DISL:CATA:1,2016-06-06T00:00:00Z,30.3085,-88.1395,2.124,6.9,1111122 
DISL,ioos:station:DISL:CATA:1,2016-06-06T00:30:00Z,30.3085,-88.1395,2.1,6.87,1111122 
DISL,ioos:station:DISL:CATA:1,2016-06-06T01:00:00Z,30.3085,-88.1395,2.087,6.85,1111122 
DISL,ioos:station:DISL:CATA:1,2016-06-06T01:30:00Z,30.3085,-88.1395,2.069,6.82,1111122 
DISL,ioos:station:DISL:CATA:1,2016-06-06T02:00:00Z,30.3085,-88.1395,2.072,6.87,1111122 
DISL,ioos:station:DISL:CATA:1,2016-06-06T02:30:00Z,30.3085,-88.1395,2.081,6.97,1111122 
DISL,ioos:station:DISL:CATA:1,2016-06-06T03:00:00Z,30.3085,-88.1395,2.09,6.91,1111122 
DISL,ioos:station:DISL:CATA:1,2016-06-06T03:30:00Z,30.3085,-88.1395,2.085,6.93,1111122 
DISL,ioos:station:DISL:CATA:1,2016-06-06T04:00:00Z,30.3085,-88.1395,2.086,6.88,1111122 
DISL,ioos:station:DISL:CATA:1,2016-06-06T04:30:00Z,30.3085,-88.1395,2.096,6.84,1111122 
DISL,ioos:station:DISL:CATA:1,2016-06-06T05:00:00Z,30.3085,-88.1395,2.113,6.84,1111122 
DISL,ioos:station:DISL:CATA:1,2016-06-06T05:30:00Z,30.3085,-88.1395,2.132,6.82,1111122 
DISL,ioos:station:DISL:CATA:1,2016-06-06T06:00:00Z,30.3085,-88.1395,2.152,6.85,1111122 
DISL,ioos:station:DISL:CATA:1,2016-06-06T06:30:00Z,30.3085,-88.1395,2.182,6.84,1111122 
DISL,ioos:station:DISL:CATA:1,2016-06-06T07:00:00Z,30.3085,-88.1395,2.22,6.17,1111122 
DISL,ioos:station:DISL:CATA:1,2016-06-06T07:30:00Z,30.3085,-88.1395,2.243,6.42,1111122 
DISL,ioos:station:DISL:CATA:1,2016-06-06T08:00:00Z,30.3085,-88.1395,2.283,6.49,1111122 
DISL,ioos:station:DISL:CATA:1,2016-06-06T08:30:00Z,30.3085,-88.1395,2.318,6.69,1111122 
DISL,ioos:station:DISL:CATA:1,2016-06-06T09:00:00Z,30.3085,-88.1395,2.331,6.6,1111122 
DISL,ioos:station:DISL:CATA:1,2016-06-06T09:30:00Z,30.3085,-88.1395,2.363,6.56,1111122 
DISL,ioos:station:DISL:CATA:1,2016-06-06T10:00:00Z,30.3085,-88.1395,2.387,6.41,1111122 
DISL,ioos:station:DISL:CATA:1,2016-06-06T10:30:00Z,30.3085,-88.1395,2.411,6.35,1111122 
DISL,ioos:station:DISL:CATA:1,2016-06-06T11:00:00Z,30.3085,-88.1395,2.451,6.4,1111122 
DISL,ioos:station:DISL:CATA:1,2016-06-06T11:30:00Z,30.3085,-88.1395,2.48,6.26,1111122 
DISL,ioos:station:DISL:CATA:1,2016-06-06T12:00:00Z,30.3085,-88.1395,2.512,6.24,1111122 
DISL,ioos:station:DISL:CATA:1,2016-06-06T12:30:00Z,30.3085,-88.1395,2.538,6.13,1111122 
DISL,ioos:station:DISL:CATA:1,2016-06-06T13:00:00Z,30.3085,-88.1395,2.552,6.23,1111122 
DISL,ioos:station:DISL:CATA:1,2016-06-06T13:30:00Z,30.3085,-88.1395,2.581,6.27,1111122 
DISL,ioos:station:DISL:CATA:1,2016-06-06T14:00:00Z,30.3085,-88.1395,2.622,6.45,1111122 
DISL,ioos:station:DISL:CATA:1,2016-06-06T14:30:00Z,30.3085,-88.1395,2.647,6.52,1111122 
DISL,ioos:station:DISL:CATA:1,2016-06-06T15:00:00Z,30.3085,-88.1395,2.668,6.52,1111122 
DISL,ioos:station:DISL:CATA:1,2016-06-06T15:30:00Z,30.3085,-88.1395,2.682,6.56,1111122 